Volver al catálogo

STARLINK-34298

ActivoComunicacionesVLEO
NORAD 64269·PAYLOAD·🇺🇸 United States

Lanzado Jun 4, 2025 desde Vandenberg Space Force Base

Loading…

Próximos Pases (próximas 24 horas)

TLE

ActualizadoSource: CelesTrak SupGP

Época: Sep 15, 2026, 02:49 UTC

1 64269C 25120P   26258.11784722  .00040069  00000+0  11836-2 0  2589
2 64269  53.1595 311.0740 0001231  89.8227 117.0174 15.34376236    18

Sigue STARLINK-34298 en tiempo real con AllMySat

Download on the App Store